Time,TemperatureF,DewpointF,PressureIn,WindDirection,WindDirectionDegrees,WindSpeedMPH,WindSpeedGustMPH,Humidity,HourlyPrecipIn,Conditions,Clouds,dailyrainin,SoftwareType,DateUTC
2013-01-01 00:11:00,33.9,28.0,30.20,NNE,13,3.0,4.0,80,0.00,,,0.00,weatherlink.com 1.10,2013-01-01 05:11:00,
2013-01-01 00:25:00,34.0,27.0,30.18,NW,323,1.0,1.0,76,0.00,,,0.00,weatherlink.com 1.10,2013-01-01 05:25:00,
2013-01-01 00:40:00,34.1,28.0,30.17,NNW,336,0.0,5.0,78,0.00,,,0.00,weatherlink.com 1.10,2013-01-01 05:40:00,
2013-01-01 00:55:00,34.1,28.0,30.17,NNW,330,2.0,6.0,77,0.00,,,0.00,weatherlink.com 1.10,2013-01-01 05:55:00,
2013-01-01 01:10:00,34.0,28.0,30.15,NNW,339,0.0,2.0,77,0.00,,,0.00,weatherlink.com 1.10,2013-01-01 06:10:00,
2013-01-01 01:25:00,34.3,27.0,30.16,North,353,1.0,4.0,75,0.00,,,0.00,weatherlink.com 1.10,2013-01-01 06:25:00,
2013-01-01 01:40:00,34.7,28.0,30.16,NNE,23,3.0,4.0,77,0.00,,,0.00,weatherlink.com 1.10,2013-01-01 06:40:00,
2013-01-01 01:55:00,34.5,28.0,30.14,NNE,27,1.0,4.0,76,0.00,,,0.00,weatherlink.com 1.10,2013-01-01 06:55:00,
2013-01-01 02:10:00,34.7,29.0,30.16,NW,314,2.0,4.0,78,0.00,,,0.00,weatherlink.com 1.10,2013-01-01 07:10:00,
2013-01-01 02:25:00,34.6,28.0,30.15,North,354,4.0,5.0,78,0.00,,,0.00,weatherlink.com 1.10,2013-01-01 07:25:00,
2013-01-01 02:40:00,34.5,28.0,30.15,WSW,242,1.0,3.0,76,0.00,,,0.00,weatherlink.com 1.10,2013-01-01 07:40:00,
2013-01-01 02:55:00,34.7,28.0,30.14,ENE,65,0.0,3.0,77,0.00,,,0.00,weatherlink.com 1.10,2013-01-01 07:55:00,
2013-01-01 03:10:00,34.7,28.0,30.14,NW,323,1.0,2.0,77,0.00,,,0.00,weatherlink.com 1.10,2013-01-01 08:10:00,
2013-01-01 03:25:00,34.9,29.0,30.15,NNW,328,1.0,4.0,78,0.00,,,0.00,weatherlink.com 1.10,2013-01-01 08:25:00,
2013-01-01 03:40:00,35.1,29.0,30.14,NW,321,2.0,3.0,77,0.00,,,0.00,weatherlink.com 1.10,2013-01-01 08:40:00,
2013-01-01 03:55:00,35.0,29.0,30.13,NNE,27,2.0,3.0,79,0.00,,,0.00,weatherlink.com 1.10,2013-01-01 08:55:00,
2013-01-01 04:10:00,35.1,30.0,30.13,NE,44,2.0,3.0,81,0.00,,,0.00,weatherlink.com 1.10,2013-01-01 09:10:00,
2013-01-01 04:25:00,34.9,29.0,30.13,WNW,288,0.0,3.0,80,0.00,,,0.00,weatherlink.com 1.10,2013-01-01 09:25:00,
2013-01-01 04:40:00,34.7,29.0,30.13,NW,323,0.0,3.0,80,0.00,,,0.00,weatherlink.com 1.10,2013-01-01 09:40:00,
2013-01-01 04:55:00,34.8,29.0,30.12,NNW,333,0.0,3.0,79,0.00,,,0.00,weatherlink.com 1.10,2013-01-01 09:55:00,
2013-01-01 05:10:00,34.8,30.0,30.14,NNW,340,2.0,3.0,81,0.00,,,0.00,weatherlink.com 1.10,2013-01-01 10:10:00,
2013-01-01 05:25:00,34.8,30.0,30.14,NNW,333,3.0,5.0,82,0.00,,,0.00,weatherlink.com 1.10,2013-01-01 10:25:00,
2013-01-01 05:40:00,35.3,30.0,30.15,NNW,343,5.0,7.0,82,0.00,,,0.00,weatherlink.com 1.10,2013-01-01 10:40:00,
2013-01-01 05:55:00,35.1,30.0,30.16,NNW,348,5.0,5.0,80,0.00,,,0.00,weatherlink.com 1.10,2013-01-01 10:55:00,
2013-01-01 06:10:00,35.2,29.0,30.16,West,264,1.0,1.0,78,0.00,,,0.00,weatherlink.com 1.10,2013-01-01 11:10:00,
2013-01-01 06:26:00,35.9,29.0,30.17,WNW,293,2.0,3.0,75,0.00,,,0.00,weatherlink.com 1.10,2013-01-01 11:26:00,
2013-01-01 06:41:00,36.2,29.0,30.17,WNW,291,0.0,4.0,76,0.00,,,0.00,weatherlink.com 1.10,2013-01-01 11:41:00,
2013-01-01 06:56:00,36.1,30.0,30.15,SSW,204,5.0,8.0,79,0.00,,,0.00,weatherlink.com 1.10,2013-01-01 11:56:00,
2013-01-01 07:11:00,36.3,32.0,30.15,NNW,344,2.0,6.0,83,0.00,,,0.00,weatherlink.com 1.10,2013-01-01 12:11:00,
2013-01-01 07:26:00,35.7,32.0,30.16,NNW,335,2.0,5.0,86,0.00,,,0.00,weatherlink.com 1.10,2013-01-01 12:26:00,
2013-01-01 07:41:00,34.9,32.0,30.16,WSW,242,0.0,1.0,89,0.00,,,0.00,weatherlink.com 1.10,2013-01-01 12:41:00,
2013-01-01 07:56:00,35.0,32.0,30.17,NW,324,5.0,7.0,89,0.00,,,0.00,weatherlink.com 1.10,2013-01-01 12:56:00,
2013-01-01 08:11:00,34.8,32.0,30.17,NNW,331,3.0,9.0,88,0.00,,,0.00,weatherlink.com 1.10,2013-01-01 13:11:00,
2013-01-01 08:26:00,34.8,32.0,30.17,NNW,328,5.0,7.0,89,0.00,,,0.00,weatherlink.com 1.10,2013-01-01 13:26:00,
2013-01-01 08:41:00,34.9,32.0,30.18,NNW,345,5.0,7.0,90,0.00,,,0.00,weatherlink.com 1.10,2013-01-01 13:41:00,
2013-01-01 08:56:00,35.2,33.0,30.17,NNE,19,4.0,7.0,90,0.00,,,0.00,weatherlink.com 1.10,2013-01-01 13:56:00,
2013-01-01 09:11:00,35.2,33.0,30.18,NNW,344,4.0,7.0,90,0.00,,,0.00,weatherlink.com 1.10,2013-01-01 14:11:00,
2013-01-01 09:26:00,35.7,33.0,30.17,North,8,2.0,6.0,91,0.00,,,0.00,weatherlink.com 1.10,2013-01-01 14:26:00,
2013-01-01 09:41:00,35.8,33.0,30.16,North,350,0.0,4.0,90,0.00,,,0.00,weatherlink.com 1.10,2013-01-01 14:41:00,
2013-01-01 09:56:00,36.1,34.0,30.18,North,355,2.0,3.0,90,0.00,,,0.00,weatherlink.com 1.10,2013-01-01 14:56:00,
2013-01-01 10:11:00,36.5,34.0,30.18,NNW,346,2.0,4.0,90,0.00,,,0.00,weatherlink.com 1.10,2013-01-01 15:11:00,
2013-01-01 10:26:00,36.6,34.0,30.18,NNW,341,2.0,3.0,90,0.00,,,0.00,weatherlink.com 1.10,2013-01-01 15:26:00,
2013-01-01 10:41:00,37.1,35.0,30.15,South,188,0.0,1.0,90,0.00,,,0.00,weatherlink.com 1.10,2013-01-01 15:41:00,
2013-01-01 10:56:00,37.1,35.0,30.16,SW,229,0.0,2.0,90,0.00,,,0.00,weatherlink.com 1.10,2013-01-01 15:56:00,
2013-01-01 11:11:00,37.3,35.0,30.15,South,173,0.0,3.0,91,0.00,,,0.00,weatherlink.com 1.10,2013-01-01 16:11:00,
2013-01-01 11:26:00,37.6,35.0,30.15,SW,224,1.0,3.0,91,0.00,,,0.00,weatherlink.com 1.10,2013-01-01 16:26:00,
2013-01-01 11:41:00,37.9,36.0,30.14,SSE,153,1.0,1.0,92,0.00,,,0.00,weatherlink.com 1.10,2013-01-01 16:41:00,
2013-01-01 11:56:00,38.2,36.0,30.13,SSW,208,1.0,2.0,92,0.00,,,0.00,weatherlink.com 1.10,2013-01-01 16:56:00,
2013-01-01 12:11:00,38.2,36.0,30.11,SSW,201,0.0,5.0,93,0.00,,,0.00,weatherlink.com 1.10,2013-01-01 17:11:00,
2013-01-01 12:26:00,38.3,37.0,30.10,SSW,205,5.0,7.0,93,0.00,,,0.00,weatherlink.com 1.10,2013-01-01 17:26:00,
2013-01-01 12:41:00,38.7,37.0,30.08,SSE,150,2.0,9.0,94,0.00,,,0.00,weatherlink.com 1.10,2013-01-01 17:41:00,
2013-01-01 12:56:00,39.7,38.0,30.08,South,174,4.0,6.0,93,0.00,,,0.00,weatherlink.com 1.10,2013-01-01 17:56:00,
2013-01-01 13:11:00,40.4,39.0,30.07,SSE,161,4.0,8.0,93,0.00,,,0.00,weatherlink.com 1.10,2013-01-01 18:11:00,
2013-01-01 13:26:00,40.6,39.0,30.06,ESE,115,8.0,10.0,92,0.00,,,0.00,weatherlink.com 1.10,2013-01-01 18:26:00,
2013-01-01 13:41:00,40.8,39.0,30.05,ESE,104,4.0,8.0,93,0.00,,,0.00,weatherlink.com 1.10,2013-01-01 18:41:00,
2013-01-01 13:56:00,40.9,39.0,30.06,SSE,155,4.0,8.0,92,0.00,,,0.00,weatherlink.com 1.10,2013-01-01 18:56:00,
2013-01-01 14:11:00,41.2,39.0,30.05,SSW,195,3.0,7.0,92,0.00,,,0.00,weatherlink.com 1.10,2013-01-01 19:11:00,
2013-01-01 14:26:00,41.2,39.0,30.05,SSW,203,4.0,10.0,92,0.00,,,0.00,weatherlink.com 1.10,2013-01-01 19:26:00,
2013-01-01 14:41:00,41.1,39.0,30.05,SSW,211,4.0,5.0,93,0.00,,,0.00,weatherlink.com 1.10,2013-01-01 19:41:00,
2013-01-01 14:56:00,41.3,40.0,30.04,SSE,162,3.0,7.0,94,0.00,,,0.00,weatherlink.com 1.10,2013-01-01 19:56:00,
2013-01-01 15:11:00,41.7,40.0,30.05,SSW,200,2.0,5.0,94,0.00,,,0.00,weatherlink.com 1.10,2013-01-01 20:11:00,
2013-01-01 15:26:00,42.2,41.0,30.05,NNW,340,2.0,2.0,94,0.00,,,0.00,weatherlink.com 1.10,2013-01-01 20:26:00,
2013-01-01 15:41:00,42.0,40.0,30.05,NNW,346,0.0,2.0,94,0.00,,,0.00,weatherlink.com 1.10,2013-01-01 20:41:00,
2013-01-01 15:56:00,42.2,41.0,30.06,NNW,335,1.0,3.0,95,0.00,,,0.00,weatherlink.com 1.10,2013-01-01 20:56:00,
2013-01-01 16:11:00,41.9,41.0,30.06,NNW,328,3.0,4.0,95,0.00,,,0.00,weatherlink.com 1.10,2013-01-01 21:11:00,
2013-01-01 16:26:00,41.7,40.0,30.06,NNW,340,3.0,3.0,95,0.00,,,0.00,weatherlink.com 1.10,2013-01-01 21:26:00,
2013-01-01 16:41:00,41.6,40.0,30.06,WNW,301,0.0,2.0,95,0.00,,,0.00,weatherlink.com 1.10,2013-01-01 21:41:00,
2013-01-01 16:56:00,41.5,40.0,30.07,NNW,332,0.0,1.0,95,0.00,,,0.00,weatherlink.com 1.10,2013-01-01 21:56:00,
2013-01-01 17:11:00,41.6,40.0,30.06,East,88,0.0,1.0,95,0.00,,,0.00,weatherlink.com 1.10,2013-01-01 22:11:00,
2013-01-01 17:26:00,41.4,40.0,30.05,SSW,205,0.0,0.0,95,0.00,,,0.00,weatherlink.com 1.10,2013-01-01 22:26:00,
2013-01-01 17:42:00,41.5,41.0,30.04,NNW,331,1.0,2.0,96,0.00,,,0.00,weatherlink.com 1.10,2013-01-01 22:42:00,
2013-01-01 17:57:00,41.3,40.0,30.04,North,4,2.0,2.0,96,0.00,,,0.00,weatherlink.com 1.10,2013-01-01 22:57:00,
2013-01-01 18:12:00,41.4,40.0,30.03,NNW,335,1.0,3.0,96,0.00,,,0.00,weatherlink.com 1.10,2013-01-01 23:12:00,
2013-01-01 18:27:00,41.0,40.0,30.04,NW,323,0.0,1.0,96,0.00,,,0.00,weatherlink.com 1.10,2013-01-01 23:27:00,
2013-01-01 18:42:00,41.3,40.0,30.05,North,4,1.0,2.0,96,0.00,,,0.00,weatherlink.com 1.10,2013-01-01 23:42:00,
2013-01-01 18:57:00,40.9,40.0,30.06,NNW,328,1.0,1.0,96,0.00,,,0.00,weatherlink.com 1.10,2013-01-01 23:57:00,
2013-01-01 19:12:00,41.4,40.0,30.06,NE,48,0.0,1.0,96,0.00,,,0.00,weatherlink.com 1.10,2013-01-02 00:12:00,
2013-01-01 19:27:00,41.0,40.0,30.06,NE,47,0.0,0.0,96,0.00,,,0.00,weatherlink.com 1.10,2013-01-02 00:27:00,
2013-01-01 19:42:00,41.1,40.0,30.05,South,172,0.0,2.0,96,0.00,,,0.00,weatherlink.com 1.10,2013-01-02 00:42:00,
2013-01-01 19:57:00,40.9,40.0,30.06,SW,222,0.0,1.0,96,0.00,,,0.00,weatherlink.com 1.10,2013-01-02 00:57:00,
2013-01-01 20:12:00,40.9,40.0,30.06,SW,222,0.0,0.0,96,0.00,,,0.00,weatherlink.com 1.10,2013-01-02 01:12:00,
2013-01-01 20:27:00,40.8,40.0,30.04,SW,222,0.0,1.0,96,0.00,,,0.00,weatherlink.com 1.10,2013-01-02 01:27:00,
2013-01-01 20:42:00,40.8,40.0,30.04,SSE,150,1.0,2.0,96,0.00,,,0.00,weatherlink.com 1.10,2013-01-02 01:42:00,
2013-01-01 20:57:00,40.8,40.0,30.04,South,173,0.0,2.0,97,0.00,,,0.00,weatherlink.com 1.10,2013-01-02 01:57:00,
2013-01-01 21:12:00,40.9,40.0,30.04,NNE,15,3.0,4.0,97,0.00,,,0.00,weatherlink.com 1.10,2013-01-02 02:12:00,
2013-01-01 21:27:00,41.1,40.0,30.06,NNW,341,2.0,4.0,97,0.00,,,0.00,weatherlink.com 1.10,2013-01-02 02:27:00,
2013-01-01 21:42:00,41.2,40.0,30.05,NNW,332,0.0,3.0,97,0.00,,,0.00,weatherlink.com 1.10,2013-01-02 02:42:00,
2013-01-01 21:57:00,41.0,40.0,30.04,NNW,328,0.0,3.0,97,0.00,,,0.00,weatherlink.com 1.10,2013-01-02 02:57:00,
2013-01-01 22:12:00,41.2,40.0,30.05,NNW,340,0.0,1.0,97,0.00,,,0.00,weatherlink.com 1.10,2013-01-02 03:12:00,
2013-01-01 22:27:00,41.1,40.0,30.05,South,172,0.0,1.0,97,0.00,,,0.00,weatherlink.com 1.10,2013-01-02 03:27:00,
2013-01-01 22:42:00,41.3,41.0,30.05,NNW,344,1.0,4.0,97,0.00,,,0.00,weatherlink.com 1.10,2013-01-02 03:42:00,
2013-01-01 22:57:00,41.8,41.0,30.04,NW,326,0.0,4.0,97,0.00,,,0.00,weatherlink.com 1.10,2013-01-02 03:57:00,
2013-01-01 23:12:00,41.5,41.0,30.04,NNE,29,1.0,2.0,97,0.00,,,0.00,weatherlink.com 1.10,2013-01-02 04:12:00,
2013-01-01 23:27:00,41.7,41.0,30.04,North,357,0.0,2.0,97,0.00,,,0.00,weatherlink.com 1.10,2013-01-02 04:27:00,
2013-01-01 23:42:00,41.8,41.0,30.04,North,1,0.0,3.0,97,0.00,,,0.00,weatherlink.com 1.10,2013-01-02 04:42:00,
2013-01-01 23:57:00,42.0,41.0,30.03,North,8,4.0,4.0,97,0.00,,,0.00,weatherlink.com 1.10,2013-01-02 04:57:00,